Regional Weather Roundup
Issued by NWS Green Bay, WI

Home | Current Version | Previous Version | Graphics & Text | Print | Product List | Glossary Off
Versions: 1 2 3 4 5 6 7 8 9 10 11 12 13 14 15 16 17 18 19 20 21 22 23 24 25 26 27 28 29 30 31 32 33 34 35 36 37 38 39 40 41 42 43 44 45 46 47 48 49 50

000
ASUS43 KGRB 031300
RWRGRB

NORTH-CENTRAL AND NORTHEAST WISCONSIN REGIONAL WEATHER ROUNDUP
NATIONAL WEATHER SERVICE GREEN BAY WI
800 AM CDT FRI JUL 03 2015

WIZ005-009-010>012-018-019-031400-
NORTH CENTRAL WISCONSIN

CITY           SKY/WX    TMP DP  RH WIND       PRES   REMARKS
IRONWOOD       PTSUNNY   63  55  77 SW8       29.92S
MANITOWISH WTR NOT AVBL
ARBOR VITAE    NOT AVBL
EAGLE RIVER    NOT AVBL
LAND O LAKES   NOT AVBL
RHINELANDER    SUNNY     59  50  72 SW7       29.99F
PHILLIPS       NOT AVBL
ANTIGO         NOT AVBL
TOMAHAWK       NOT AVBL
MERRILL        NOT AVBL
$$

WIZ013-073-031400-
NORTHEAST WISCONSIN

CITY           SKY/WX    TMP DP  RH WIND       PRES   REMARKS
IRON MOUNTAIN  SUNNY     62  50  64 W6        29.95S
MARINETTE      SUNNY     57  48  72 W5        29.97S
$$

WIZ017-030-035>037-045-031400-
CENTRAL WISCONSIN

CITY           SKY/WX    TMP DP  RH WIND       PRES   REMARKS
MEDFORD        NOT AVBL
WAUSAU         SUNNY     59  53  80 CALM      29.98S
MOSINEE        SUNNY     55  54  94 CALM      30.01S
MARSHFIELD     SUNNY     58  52  80 SW3       30.00S
WISC RAPIDS    SUNNY     58  52  80 CALM      30.01S
STEVENS POINT  NOT AVBL
WAUPACA        NOT AVBL
SHAWANO        NOT AVBL
CLINTONVILLE   NOT AVBL
$$

WIZ038-039-048-051-031400-
FOX VALLEY

CITY           SKY/WX    TMP DP  RH WIND       PRES   REMARKS
NWS GREEN BAY  SUNNY     60  54  80 SW3       30.00S
APPLETON       NOT AVBL
OSHKOSH        SUNNY     60  51  72 W5        30.00F
FOND DU LAC    SUNNY     59  50  72 CALM      30.00F
$$

WIZ022-050-052-031400-
EAST CENTRAL WISCONSIN

CITY           SKY/WX    TMP DP  RH WIND       PRES   REMARKS
STURGEON BAY   SUNNY     61  52  72 W7        30.01S
MANITOWOC      NOT AVBL
SHEBOYGAN      SUNNY     59  51  75 SW3       30.00F
$$

LMZ563-521-522-541>543-031400-
LAKESHORE

STATION/POSITION TIME  TEMP    WIND        PRES    VSBY  WAVE
                       AIR SEA DIR/SP/G                  HT/PER
                 (UTC) (F)     (DEG/KT/KT) (MB)    (MI)  (FT/S)
SHEBOYGAN LKSHOR 1200   58     250/  2/  2 1016.4R
KEWAUNEE LKSHORE 1200   56     300/  2/  5 1014.8F
NORTHPORT PIER   1200   59     180/  1/  3 1015.2R
N MID LAKE BUOY  1150   49 45  190/  8/  8 1015.2R         0
S GREEN BAY BUOY 1200   62 68  240/ 12/ 14 1016.7
STURGEON BAY CG  1155   55     300/  4     1016.5      6   1
CHAMBERS ISLAND  1200   62     210/  6/ 10 1015.2S
MENOMINEE LKSHOR 1200   59     240/  7/ 11 1015.7S
$$


USA.gov is the U.S. government's official web portal to all federal, state and local government web resources and services.